This demonstration page uses our WeatherBlox Daily Observations layout. Learn more.

Left ArrowRight Arrow

38.89511, -77.03637

Hourly Observations for March 8, 2021

Temp ( °F °C ) Dew Point ( °F °C ) Humidity (%) Winds ( mph kmh ) Pressure ( in mb ) Visibility ( mi km ) Precip ( " mm )
12:52 am 00:52 Clear 34 1.1 21 -6.1 59 59 Calm 30.45 1031 10 16.0934 0 0
1:52 am 01:52 Clear 33 0.6 19 -7.2 56 56 NNE 3 6 30.46 1031 10 16.0934 0 0
2:52 am 02:52 Mostly Clear 32 0 20 -6.7 61 61 Calm 30.46 1031 10 16.0934 0 0
3:52 am 03:52 Mostly Cloudy 31 -0.6 20 -6.7 64 64 Calm 30.46 1032 10 16.0934 0 0
4:52 am 04:52 Mostly Cloudy 31 -0.6 20 -6.7 64 64 Calm 30.48 1032 10 16.0934 0 0
5:52 am 05:52 Mostly Clear 30 -1.1 19 -7.2 64 64 Calm 30.49 1032 10 16.0934 0 0
6:52 am 06:52 Mostly Sunny 32 0 20 -6.7 61 61 Calm 30.5 1033 10 16.0934 0 0
7:52 am 07:52 Partly Cloudy 37 2.8 22 -5.6 54 54 Calm 30.52 1034 10 16.0934 0 0
8:52 am 08:52 Partly Cloudy 39 3.9 19 -7.2 45 45 N 10 17 30.53 1034 10 16.0934 0 0
9:52 am 09:52 Partly Cloudy 43 6.1 14 -10 31 31 NW 12 19 30.53 1034 10 16.0934 0 0
10:52 am 10:52 Partly Cloudy 45 7.2 9 -12.8 23 23 N 14 22 30.53 1034 10 16.0934 0 0
11:52 am 11:52 Mostly Sunny 47 8.3 8 -13.3 20 20 NNW 10 17 30.5 1033 10 16.0934 0 0
12:52 pm 12:52 Mostly Sunny 50 10 7 -13.9 17 17 NW 10 17 30.48 1032 10 16.0934 0 0
1:52 pm 13:52 Mostly Sunny 51 10.6 7 -13.9 17 17 NNW 9 15 30.45 1031 10 16.0934 0 0
2:52 pm 14:52 Mostly Sunny 53 11.7 8 -13.3 16 16 NNE 6 9 30.44 1031 10 16.0934 0 0
3:52 pm 15:52 Partly Cloudy 53 11.7 12 -11.1 19 19 NE 7 11 30.43 1031 10 16.0934 0 0
4:52 pm 16:52 Mostly Cloudy 53 11.7 16 -8.9 23 23 E 5 7 30.42 1030 10 16.0934 0 0
5:52 pm 17:52 Mostly Cloudy 52 11.1 14 -10 22 22 ENE 3 6 30.43 1031 10 16.0934 0 0
6:52 pm 18:52 Mostly Cloudy 49 9.4 19 -7.2 31 31 S 7 11 30.45 1031 10 16.0934 0 0
7:52 pm 19:52 Partly Cloudy 47 8.3 22 -5.6 37 37 S 5 7 30.45 1031 10 16.0934 0 0
8:52 pm 20:52 Mostly Cloudy 47 8.3 22 -5.6 37 37 SSW 3 6 30.45 1031 10 16.0934 0 0
9:52 pm 21:52 Partly Cloudy 43 6.1 29 -1.7 58 58 S 7 11 30.45 1031 10 16.0934 0 0
10:52 pm 22:52 Partly Cloudy 41 5 29 -1.7 62 62 S 6 9 30.44 1031 10 16.0934 0 0
11:52 pm 23:52 Partly Cloudy 42 5.6 28 -2.2 58 58 S 7 11 30.43 1031 10 16.0934 0 0

Powered by AerisWeather